Roseau, MN

12:45 AM CST on February 07, 2016 (GMT -0600)
Roseau Municipal-Billberg

Weather History for KROX - December, 2013

Change the Weather History Date:

Tuesday, December 31, 2013

  Actual Average Record
Temperature  
Mean Temperature -22 °F -  
Max Temperature -18 °F 10 °F 35 °F (2006)
Min Temperature -27 °F -7 °F -44 °F (1967)
Degree Days  
Heating Degree Days 88    
Moisture  
Dew Point -30 °F    
Average Humidity 70    
Maximum Humidity 76    
Minimum Humidity 63    
Precipitation  
Precipitation 0.00 in - - ()
Sea Level Pressure  
Sea Level Pressure 30.30 in    
Wind  
Wind Speed 7 mph (West)    
Max Wind Speed 10 mph    
Max Gust Speed -    
Visibility 10 miles    
Events      
Averages and records for this station are not official NWS values.
T = Trace of Precipitation, MM = Missing Value Source: NWS Daily Summary

Daily Weather History Graph

Daily Weather History Graph

Search for Another Location

Airport or City:

Trip Planner

Search our weather history database for the weather conditions in past years. The results will help you decide how hot, cold, wet, or windy it might be!

Date:

Astronomy

Dec. 31, 2013 Rise Set
Actual Time 8:16 AM CST 4:35 PM CST
Civil Twilight 7:39 AM CST 5:12 PM CST
Nautical Twilight 6:58 AM CST 5:53 PM CST
Astronomical Twilight 6:20 AM CST 6:31 PM CST
Moon 7:06 AM CST (12/31) 4:17 PM CST (12/31)
Length of Visible Light 9h 33m
Length of Day
8h 19m
Waning Crescent, 1% of the Moon is Illuminated
Dec 31
Waning Crescent
Jan 1
New
Jan 7
First Quarter
Jan 15
Full
Jan 23
Last Quarter

Hourly Weather History & Observations

Time (CST) Temp. Windchill Dew Point Humidity Pressure Visibility Wind Dir Wind Speed Gust Speed Precip Events Conditions
12:14 AM -20.2 °F -35.5 °F -27.4 °F 69% 30.14 in 10.0 mi West 5.8 mph - N/A   Clear
12:34 AM -20.2 °F -40.1 °F -27.4 °F 69% 30.13 in 10.0 mi West 9.2 mph - N/A   Clear
12:54 AM -23.8 °F -41.6 °F -29.2 °F 76% 30.13 in 10.0 mi West 6.9 mph - N/A   Clear
1:14 AM -23.8 °F -43.2 °F -29.2 °F 76% 30.13 in 10.0 mi West 8.1 mph - N/A   Clear
1:34 AM -23.8 °F -43.2 °F -29.2 °F 76% 30.14 in 10.0 mi West 8.1 mph - N/A   Clear
1:54 AM -22.0 °F -43.6 °F -29.2 °F 69% 30.14 in 10.0 mi West 10.4 mph - N/A   Clear
2:14 AM -22.0 °F -43.6 °F -29.2 °F 69% 30.15 in 10.0 mi West 10.4 mph - N/A   Clear
2:34 AM -23.8 °F -43.2 °F -29.2 °F 76% 30.16 in 10.0 mi West 8.1 mph - N/A   Clear
2:54 AM -23.8 °F -41.6 °F -29.2 °F 76% 30.16 in 10.0 mi WNW 6.9 mph - N/A   Clear
3:14 AM -25.6 °F -43.8 °F -32.8 °F 69% 30.17 in 10.0 mi West 6.9 mph - N/A   Clear
3:34 AM -25.6 °F -45.4 °F -32.8 °F 69% 30.17 in 10.0 mi West 8.1 mph - N/A   Clear
3:54 AM -23.8 °F -43.2 °F -31.0 °F 69% 30.18 in 10.0 mi West 8.1 mph - N/A   Clear
4:14 AM -23.8 °F -43.2 °F -31.0 °F 69% 30.18 in 10.0 mi West 8.1 mph - N/A   Clear
4:34 AM -25.6 °F -46.8 °F -32.8 °F 69% 30.18 in 10.0 mi West 9.2 mph - N/A   Clear
4:54 AM -25.6 °F -48.0 °F -32.8 °F 69% 30.19 in 10.0 mi West 10.4 mph - N/A   Clear
5:15 AM -25.6 °F -43.8 °F -32.8 °F 69% 30.19 in 10.0 mi WNW 6.9 mph - N/A   Clear
5:34 AM -25.6 °F -39.8 °F -34.6 °F 63% 30.20 in 10.0 mi WNW 4.6 mph - N/A   Clear
5:54 AM -27.4 °F -44.1 °F -34.6 °F 69% 30.20 in 10.0 mi West 5.8 mph - N/A   Clear
6:14 AM -27.4 °F -45.9 °F -34.6 °F 69% 30.21 in 10.0 mi West 6.9 mph - N/A   Clear
6:34 AM -27.4 °F -47.6 °F -34.6 °F 69% 30.22 in 10.0 mi West 8.1 mph - N/A   Clear
6:55 AM -27.4 °F -47.6 °F -34.6 °F 69% 30.23 in 10.0 mi West 8.1 mph - N/A   Clear
7:14 AM -27.4 °F -45.9 °F -34.6 °F 69% 30.24 in 10.0 mi West 6.9 mph - N/A   Clear
7:34 AM -27.4 °F -47.6 °F -34.6 °F 69% 30.25 in 10.0 mi West 8.1 mph - N/A   Clear
7:54 AM -27.4 °F -47.6 °F -34.6 °F 69% 30.26 in 10.0 mi West 8.1 mph - N/A   Clear
8:14 AM -27.4 °F -45.9 °F -34.6 °F 69% 30.27 in 10.0 mi West 6.9 mph - N/A   Clear
8:34 AM -27.4 °F -44.1 °F -34.6 °F 69% 30.28 in 10.0 mi WNW 5.8 mph - N/A   Clear
8:54 AM -27.4 °F -45.9 °F -34.6 °F 69% 30.29 in 10.0 mi West 6.9 mph - N/A   Clear
9:14 AM -27.4 °F -44.1 °F -34.6 °F 69% 30.29 in 10.0 mi WNW 5.8 mph - N/A   Clear
9:34 AM -27.4 °F -47.6 °F -34.6 °F 69% 30.31 in 10.0 mi West 8.1 mph - N/A   Clear
9:54 AM -27.4 °F -44.1 °F -34.6 °F 69% 30.32 in 10.0 mi WNW 5.8 mph - N/A   Clear
10:14 AM -25.6 °F -39.8 °F -34.6 °F 63% 30.32 in 10.0 mi WNW 4.6 mph - N/A   Clear
10:34 AM -25.6 °F -41.9 °F -32.8 °F 69% 30.33 in 10.0 mi WNW 5.8 mph - N/A   Clear
10:54 AM -25.6 °F -41.9 °F -32.8 °F 69% 30.33 in 10.0 mi WNW 5.8 mph - N/A   Clear
11:14 AM -23.8 °F -39.8 °F -31.0 °F 69% 30.34 in 10.0 mi WNW 5.8 mph - N/A   Clear
11:34 AM -23.8 °F -43.2 °F -29.2 °F 76% 30.34 in 10.0 mi West 8.1 mph - N/A   Clear
11:54 AM -23.8 °F -41.6 °F -29.2 °F 76% 30.34 in 10.0 mi West 6.9 mph - N/A   Clear
12:14 PM -22.0 °F -39.4 °F -29.2 °F 69% 30.34 in 10.0 mi West 6.9 mph - N/A   Clear
12:34 PM -20.2 °F -37.3 °F -27.4 °F 69% 30.34 in 10.0 mi West 6.9 mph - N/A   Clear
12:55 PM -20.2 °F -37.3 °F -27.4 °F 69% 30.34 in 10.0 mi WNW 6.9 mph - N/A   Clear
1:14 PM -20.2 °F -40.1 °F -27.4 °F 69% 30.34 in 10.0 mi West 9.2 mph - N/A   Clear
1:34 PM -18.4 °F -37.9 °F -25.6 °F 70% 30.34 in 10.0 mi West 9.2 mph - N/A   Clear
1:54 PM -18.4 °F -35.1 °F -25.6 °F 70% 30.34 in 10.0 mi West 6.9 mph - N/A   Clear
2:14 PM -18.4 °F -36.6 °F -25.6 °F 70% 30.34 in 10.0 mi West 8.1 mph - N/A   Clear
2:34 PM -18.4 °F -36.6 °F -25.6 °F 70% 30.34 in 10.0 mi West 8.1 mph - N/A   Clear
2:54 PM -18.4 °F -35.1 °F -25.6 °F 70% 30.34 in 10.0 mi West 6.9 mph - N/A   Clear
3:14 PM -18.4 °F -36.6 °F -25.6 °F 70% 30.35 in 10.0 mi West 8.1 mph - N/A   Clear
3:34 PM -18.4 °F -37.9 °F -25.6 °F 70% 30.35 in 10.0 mi West 9.2 mph - N/A   Clear
3:54 PM -18.4 °F -36.6 °F -25.6 °F 70% 30.35 in 10.0 mi West 8.1 mph - N/A   Clear
4:14 PM -18.4 °F -33.4 °F -25.6 °F 70% 30.35 in 10.0 mi West 5.8 mph - N/A   Clear
4:34 PM -18.4 °F -31.4 °F -25.6 °F 70% 30.36 in 10.0 mi West 4.6 mph - N/A   Clear
4:54 PM -20.2 °F -37.3 °F -25.6 °F 76% 30.36 in 10.0 mi West 6.9 mph - N/A   Clear
5:14 PM -20.2 °F -37.3 °F -27.4 °F 69% 30.37 in 10.0 mi West 6.9 mph - N/A   Clear
5:35 PM -20.2 °F -37.3 °F -27.4 °F 69% 30.38 in 10.0 mi West 6.9 mph - N/A   Clear
5:54 PM -20.2 °F -37.3 °F -27.4 °F 69% 30.38 in 10.0 mi West 6.9 mph - N/A   Clear
5:59 PM -20.2 °F -38.8 °F -27.4 °F 69% 30.38 in 10.0 mi West 8.1 mph - N/A   Clear
6:35 PM -20.2 °F -38.8 °F -27.4 °F 69% 30.39 in 10.0 mi West 8.1 mph - N/A   Clear
6:54 PM -20.2 °F -35.5 °F -27.4 °F 69% 30.39 in 10.0 mi WNW 5.8 mph - N/A   Clear
7:14 PM -22.0 °F -35.6 °F -29.2 °F 69% 30.39 in 10.0 mi West 4.6 mph - N/A   Clear
7:34 PM -22.0 °F -35.6 °F -29.2 °F 69% 30.39 in 10.0 mi West 4.6 mph - N/A   Clear
7:53 PM -22.0 °F -33.0 °F -29.2 °F 69% 30.39 in 10.0 mi West 3.5 mph - N/A   Clear
8:14 PM -23.8 °F - -29.2 °F 76% 30.39 in 10.0 mi Calm Calm - N/A   Clear
8:35 PM -23.8 °F -35.0 °F -29.2 °F 76% 30.39 in 10.0 mi West 3.5 mph - N/A   Clear
8:54 PM -23.8 °F -35.0 °F -31.0 °F 69% 30.41 in 10.0 mi WSW 3.5 mph - N/A   Clear
9:14 PM -23.8 °F -37.7 °F -29.2 °F 76% 30.41 in 10.0 mi West 4.6 mph - N/A   Clear
9:34 PM -23.8 °F -39.8 °F -29.2 °F 76% 30.41 in 10.0 mi West 5.8 mph - N/A   Clear
9:54 PM -23.8 °F -35.0 °F -29.2 °F 76% 30.42 in 10.0 mi WSW 3.5 mph - N/A   Clear
10:15 PM -22.0 °F -33.0 °F -29.2 °F 69% 30.42 in 10.0 mi West 3.5 mph - N/A   Clear
10:34 PM -22.0 °F - -29.2 °F 69% 30.42 in 10.0 mi Calm Calm - N/A   Clear
10:54 PM -22.0 °F - -29.2 °F 69% 30.42 in 10.0 mi Calm Calm - N/A   Clear
11:15 PM -22.0 °F -33.0 °F -27.4 °F 76% 30.43 in 10.0 mi West 3.5 mph - N/A   Clear
11:34 PM -20.2 °F - -27.4 °F 69% 30.43 in 10.0 mi Calm Calm - N/A   Clear
11:54 PM -20.2 °F - -27.4 °F 69% 30.43 in 10.0 mi Calm Calm - N/A   Clear